Location: Freiheit
(51.4333°N, 10.2833°E)
Time: 01:48:40
(UTC+00:00)

Daily predictions for brighter satellites

Satellite Brightness Start Highest point End
(mag) Time Altitude Azimuth Time Altitude Azimuth Time Altitude Azimuth
Cosmos 1980 Rocket 4.3 02:37:21 22° NE 02:37:21 22° NE 02:39:34 10° NE
ATLAS 3B R/B 4.1 02:39:15 31° ESE 02:39:15 31° ESE 02:42:47 10° ESE
CENTAUR R/B 3.6 02:54:38 52° SE 02:54:38 52° SE 03:00:52 10° SE
USA 215 3.7 03:00:08 10° E 03:05:38 54° NE 03:05:38 54° NE
Cosmos 2263 Rocket 4.2 03:27:15 18° SSE 03:27:15 18° SSE 03:28:38 10° SSE
Cosmos 2322 Rocket 3.9 03:25:48 19° SSE 03:28:36 29° ESE 03:33:27 10° NE
Cosmos 1844 Rocket 4.1 03:31:05 28° NNE 03:32:46 33° NE 03:37:52 10° ESE
COSMOS 2455 3.2 03:35:52 59° NE 03:35:52 59° NE 03:40:42 10° NE
CZ-2C R/B 3.6 03:31:37 10° NNE 03:35:01 40° NE 03:35:01 40° NE
ATLAS 2AS CENTAUR R/B 3.2 03:35:15 56° S 03:36:58 70° SE 03:44:52 10° NE
USA 32 4.2 03:48:48 10° N 03:54:04 68° E 03:59:16 10° SSE
SKYMED 2 4.3 03:56:27 10° SSE 04:00:09 50° E 04:00:09 50° E
Cosmos 1680 Rocket 3.6 04:05:20 67° SSE 04:05:55 76° ESE 04:11:15 10° NNE
Cosmos 1371 Rocket 4.2 04:10:55 59° S 04:10:55 59° S 04:15:18 10° SSE
SL-8 Rocket 3.8 04:04:36 10° N 04:10:51 89° W 04:17:01 10° S
Lacrosse 5 rocket 2.1 04:11:52 51° NNE 04:11:52 51° NNE 04:15:59 10° E
STARLINK-54 4.5 04:12:58 47° ENE 04:12:58 47° ENE 04:15:55 10° ENE
Cosmos 2360 Rocket 3.8 04:07:00 10° SSE 04:11:59 33° ESE 04:16:58 10° NE
SL-16 R/B 2.4 04:10:21 35° S 04:12:46 67° ESE 04:18:25 10° NE
Cosmos 2344 3.6 04:11:26 52° W 04:13:10 64° NW 04:21:56 10° NE
STARLINK-77 4.4 04:14:25 48° ENE 04:14:25 48° ENE 04:17:25 10° ENE
STARLINK-25 4.3 04:16:00 50° ENE 04:16:00 50° ENE 04:19:05 10° ENE
STARLINK 1060 4.4 04:16:51 46° ESE 04:16:51 46° ESE 04:19:52 10° ENE
STARLINK-71 4.2 04:17:48 52° ENE 04:17:48 52° ENE 04:20:57 10° ENE
H-2A R/B 4.2 04:13:18 10° NNE 04:14:52 23° NNE 04:14:52 23° NNE
Cosmos 1980 Rocket 2.7 04:19:08 43° NNW 04:19:08 43° NNW 04:23:45 10° NNE
STARLINK-79 4.2 04:19:09 54° ENE 04:19:09 54° ENE 04:22:22 10° ENE
STARLINK 1030 4.2 04:20:34 50° ESE 04:20:34 50° ESE 04:23:45 10° ENE
STARLINK-78 4.1 04:20:47 56° ENE 04:20:47 56° ENE 04:24:04 10° ENE
Lacrosse 5 2.3 04:19:06 49° S 04:20:06 59° SE 04:25:07 10° ENE
STARLINK 1027 4.4 04:21:02 44° E 04:21:02 44° E 04:23:44 10° ENE
STARLINK-57 4.0 04:22:29 58° ENE 04:22:29 58° ENE 04:25:50 10° ENE
Cosmos 1697 Rocket 3.9 04:23:59 27° NNW 04:23:59 27° NNW 04:27:41 10° NNE
STARLINK-49 3.9 04:23:57 60° NE 04:23:57 60° NE 04:27:22 10° ENE
STARLINK 1020 4.0 04:24:19 55° ESE 04:24:19 55° ESE 04:27:40 10° ENE
STARLINK-27 3.9 04:25:32 62° NE 04:25:32 62° NE 04:29:00 10° ENE
Cosmos 2112 Rocket 3.9 04:23:44 46° SSW 04:25:25 89° WNW 04:30:49 10° NNE
Meteor 2-10 3.9 04:23:56 46° SSW 04:25:35 79° WNW 04:30:50 10° N
ADEOS Rocket 4.1 04:20:46 10° SE 04:25:58 41° ENE 04:31:34 10° N
PSLV R/B 4.4 04:22:47 10° NNE 04:26:29 53° E 04:28:26 25° SSE
STARLINK-74 3.8 04:27:07 64° NE 04:27:07 64° NE 04:30:39 10° ENE
ATLAS 3B R/B 2.9 04:26:33 45° WSW 04:26:39 45° WSW 04:33:09 10° S
Cosmos 1844 4.2 04:23:14 22° NNW 04:26:43 57° NE 04:32:11 10° SE
STARLINK 1034 3.8 04:28:04 60° ESE 04:28:04 60° ESE 04:31:34 10° ENE
STARLINK-39 3.7 04:28:43 66° NE 04:28:43 66° NE 04:32:19 10° ENE
Cosmos 2181 Rocket 3.9 04:23:33 10° S 04:29:50 85° W 04:36:17 10° N
STARLINK 3.7 04:30:19 68° NE 04:30:19 68° NE 04:34:00 10° ENE
STARLINK-43 3.8 04:31:00 57° SE 04:31:00 57° SE 04:34:01 10° ESE
Gbstr 26 Del rocket 4.4 04:27:22 38° SW 04:30:22 72° SSE 04:38:20 10° ENE
STARLINK-69 3.6 04:32:06 69° NNE 04:32:06 69° NNE 04:35:51 10° ENE
IDEFIX/ARIANE 42P 4.4 04:27:45 10° N 04:29:16 17° NNW 04:29:16 17° NNW
STARLINK-21 3.6 04:33:32 71° NNE 04:33:32 71° NNE 04:37:21 10° ENE
Cosmos 2228 4.0 04:35:39 33° NNW 04:35:39 33° NNW 04:38:14 10° N
STARLINK-45 3.6 04:35:19 71° NNE 04:35:19 71° NNE 04:39:12 10° ENE
STARLINK 1033 3.5 04:35:38 70° SSE 04:35:38 70° SSE 04:39:28 10° ENE
Cosmos 1624 Rocket 4.0 04:36:38 54° WSW 04:36:38 54° WSW 04:41:33 10° S
STARLINK-70 3.5 04:36:49 72° N 04:36:49 72° N 04:40:46 10° ENE
Meteor 1-16 Rocket 4.2 04:33:05 21° SSW 04:37:04 67° WNW 04:42:48 10° N
Okean O Rocket 3.3 04:33:36 10° NNE 04:37:43 35° E 04:41:44 10° SSE
Cosmos 1726 Rocket 4.0 04:38:49 46° NNW 04:38:49 46° NNW 04:42:09 10° N
Cosmos 2058 Rocket 2.9 04:35:01 21° S 04:37:55 89° WNW 04:42:19 10° N
STARLINK-76 3.5 04:38:17 73° N 04:38:17 73° N 04:42:18 10° ENE
Cosmos 2341 Rocket 4.2 04:33:39 10° NNW 04:39:31 44° W 04:45:20 10° SSW
STARLINK 3.5 04:39:52 72° NNW 04:39:55 72° N 04:43:57 10° ENE
SJ-12 4.1 04:36:04 10° NNE 04:40:10 71° ESE 04:44:14 10° S
Cosmos 1908 3.6 04:42:07 50° N 04:42:07 50° N 04:45:07 10° N
STARLINK-32 3.5 04:41:28 71° NNW 04:41:34 72° N 04:45:36 10° ENE
Lacrosse 4 Rocket 4.1 04:40:18 10° N 04:41:39 11° NNE 04:43:00 10° NE
CENTAUR R/B 3.7 04:41:53 32° WSW 04:42:26 33° WSW 04:49:51 10° S
CZ-4B R/B 3.3 04:38:54 10° N 04:42:17 48° NNW 04:42:17 48° NNW
Cosmos 2058 4.4 04:39:10 10° N 04:43:08 38° ENE 04:47:04 10° SE
STARLINK-40 3.4 04:43:04 70° NNW 04:43:15 72° N 04:47:17 10° E
STARLINK-48 3.3 04:43:58 73° NNW 04:44:09 76° N 04:48:03 10° E
STARLINK-44 3.4 04:44:38 69° NW 04:44:53 71° N 04:48:55 10° E
STARLINK 1040 3.8 04:46:49 41° ENE 04:46:49 41° ENE 04:48:50 10° ENE
Cosmos 864 Rocket 4.4 04:40:01 10° NNW 04:46:12 67° W 04:52:25 10° S
STARLINK-37 3.4 04:46:20 66° NW 04:46:39 71° N 04:50:41 10° E
Meteor 2-12 Rocket 4.4 04:41:55 10° N 04:48:04 87° ENE 04:54:13 10° S
STARLINK-36 3.5 04:47:50 65° NW 04:48:13 71° N 04:52:15 10° E
COSMO-SKYMED 1 2.6 04:44:31 10° S 04:48:47 54° W 04:48:47 54° W
USA 215 3.2 04:42:51 10° ESE 04:49:26 85° SSW 04:52:59 30° WNW
STARLINK-68 3.5 04:49:37 62° NW 04:50:05 70° N 04:54:07 10° E
STARLINK-26 3.1 04:51:04 69° N 04:51:08 69° N 04:54:35 10° E
NOSS 5 (C) 4.3 04:51:24 78° SW 04:51:25 79° SW 04:55:21 10° SE
STARLINK-63 3.5 04:51:05 61° NW 04:51:37 70° N 04:55:38 10° E
Cosmos 2056 Rocket 3.9 04:52:10 40° W 04:52:54 43° WSW 04:57:58 10° S
NOSS 3-4 (A) 3.4 04:50:16 34° WSW 04:53:01 67° NW 04:59:34 10° NE
NOSS 3-4 (C) 3.4 04:50:20 34° WSW 04:53:07 67° NW 04:59:40 10° NE
STARLINK-35 3.5 04:52:34 59° WNW 04:53:10 70° N 04:57:12 10° E
ALOS 2.2 04:48:39 10° NNE 04:53:21 88° E 04:58:02 10° SSW
STARLINK-75 3.3 04:53:43 62° NW 04:54:03 67° N 04:57:47 10° E
STARLINK-51 3.5 04:54:10 57° WNW 04:54:49 70° N 04:58:51 10° E
Elektron 3 4.2 04:55:19 49° WSW 04:56:14 70° NW 04:59:17 10° NE
STARLINK-30 3.5 04:55:47 55° WNW 04:56:31 70° N 05:00:32 10° E
BREEZE M DEB (TANK) 4.3 04:47:33 26° W 04:56:34 69° SSW 05:01:21 10° ESE
STARLINK-41 3.3 04:57:13 59° NW 04:57:42 67° N 05:01:24 10° E
STARLINK-72 3.5 04:57:21 53° WNW 04:58:09 69° N 05:02:11 10° E
Cosmos 2218 Rocket 4.1 04:53:24 10° NNW 04:59:32 50° W 05:05:34 10° SSW
STARLINK-50 3.6 04:58:56 51° WNW 04:59:48 69° N 05:03:50 10° E
STARLINK 3.3 04:59:58 56° NW 05:00:33 67° N 05:04:14 10° E
Helios 1A Rocket 4.3 04:57:01 10° NNE 05:00:59 41° E 05:04:55 10° S
Meteor PRIRODA 4.1 04:57:36 10° N 05:00:36 42° NW 05:00:36 42° NW
STARLINK-59 3.6 05:00:37 49° WNW 05:01:33 69° N 05:05:35 10° E
Cosmos 158 Rocket 3.8 04:59:04 24° SW 05:01:56 60° WNW 05:06:55 10° NNE
STARLINK 1031 3.3 05:01:21 50° WSW 05:02:16 88° SSE 05:06:07 10° ENE
Cosmos 371 Rocket 4.0 04:57:43 10° NNW 05:02:30 52° ENE 05:07:12 10° SE
PAYLOAD B 4.4 04:57:06 10° NNE 05:02:45 76° ESE 05:08:21 10° S
STARLINK 1014 2.7 05:02:43 78° NW 05:02:48 79° NNW 05:05:54 10° ENE
Cosmos 2278 Rocket 3.4 04:57:39 10° NNW 05:02:57 38° NE 05:08:13 10° ESE
STARLINK-56 3.6 05:02:07 47° WNW 05:03:07 69° N 05:07:09 10° E
STARLINK 1044 3.4 05:02:20 48° WSW 05:03:22 89° SSE 05:07:17 10° ENE
USA 116 3.7 04:59:46 10° S 05:03:56 62° WSW 05:05:47 28° NNW
Starlink (trailer) 3.6 05:03:43 45° WNW 05:04:47 69° N 05:08:49 10° E
STARLINK 1024 3.3 05:04:56 46° WSW 05:06:00 90° NNW 05:09:51 10° ENE
Cosmos 2263 Rocket 4.1 05:09:01 13° SW 05:09:01 13° SW 05:09:55 10° SW
STARLINK-38 3.6 05:05:19 44° WNW 05:06:28 69° N 05:10:29 10° E
Cosmos 1484 Rocket 3.2 05:03:14 10° N 05:06:18 38° NW 05:06:18 38° NW
STARLINK-58 3.5 05:06:09 44° WNW 05:07:14 68° N 05:11:10 10° E
STARLINK-65 3.6 05:06:54 42° WNW 05:08:07 69° N 05:12:08 10° E
STARLINK-62 3.5 05:07:48 42° WNW 05:08:58 68° N 05:12:54 10° E
STARLINK-53 3.6 05:08:35 41° WNW 05:09:51 69° N 05:13:53 10° E
Alouette 2 Rocket 3.9 05:07:43 10° S 05:11:30 55° E 05:15:01 10° NNE
Cosmos 2322 Rocket 2.2 05:07:42 15° SW 05:12:20 59° NW 05:18:00 10° NNE
STARLINK 1032 3.3 05:12:08 38° WSW 05:13:30 85° NNW 05:17:22 10° ENE
CZ-2C R/B 3.5 05:10:28 10° N 05:14:25 25° WNW 05:14:25 25° WNW
STARLINK 1063 4.5 05:11:49 16° SW 05:14:50 47° SSE 05:18:50 10° ENE
SOZ 3.8 05:16:06 53° W 05:16:34 79° SSW 05:18:45 10° ESE
Cosmos 1844 Rocket 2.7 05:12:46 17° NW 05:17:01 58° WSW 05:22:32 10° S
STARLINK 1011 3.3 05:15:46 35° W 05:17:17 84° NNW 05:21:09 10° ENE
RESURS DK-1 2.4 05:17:04 21° SW 05:19:39 56° NW 05:23:46 10° NNE
STARLINK 1064 4.4 05:16:35 15° SW 05:19:47 50° SSE 05:23:48 10° ENE
STARLINK 1036 3.3 05:19:24 32° W 05:21:05 82° NNW 05:24:57 10° ENE
COSMOS 2455 3.8 05:19:02 23° WNW 05:21:20 30° NNW 05:26:35 10° NNE
CZ-4B DEB 4.1 05:16:16 10° NNE 05:21:49 72° WNW 05:27:18 10° SSW
Cosmos 2239 Rocket 4.5 05:16:17 10° N 05:22:35 89° W 05:28:48 10° S
STARLINK-42 3.3 05:22:16 33° WNW 05:23:46 68° N 05:27:25 10° E
Cosmos 2366 rocket 4.5 05:18:21 10° NNW 05:24:05 36° W 05:29:47 10° SSW
STARLINK 1041 4.3 05:21:23 14° SW 05:24:46 53° SSE 05:28:49 10° ENE
STARLINK-34 3.5 05:24:04 29° WNW 05:25:54 69° N 05:29:50 10° E
Cosmos 1437 3.1 05:26:43 36° WNW 05:27:04 37° W 05:29:54 10° SSW
Cosmos 1943 Rocket 4.4 05:24:58 10° N 05:28:08 15° NNE 05:31:17 10° ENE
ATLAS 2AS CENTAUR R/B 3.3 05:22:43 19° W 05:28:29 50° NNW 05:36:06 10° NE
STARLINK 1047 3.4 05:26:41 27° W 05:28:40 78° NNW 05:32:32 10° ENE
STARLINK 1038 4.2 05:26:09 13° SW 05:29:43 56° SSE 05:33:47 10° ENE
STARLINK 1037 3.4 05:29:18 26° W 05:31:25 77° N 05:35:17 10° ENE
Cosmos 1867 3.5 05:29:22 16° NW 05:33:51 73° SW 05:39:15 10° SSE
Cosmos 1110 Rocket 4.3 05:28:40 10° NNW 05:34:00 74° ENE 05:39:19 10° SSE
FENGYUN 3A 3.8 05:29:00 10° N 05:34:13 51° WNW 05:39:27 10° SW
STARLINK 1046 4.1 05:30:57 12° SW 05:34:41 60° SSE 05:38:47 10° ENE
Cosmos 1452 Rocket 3.7 05:30:00 11° NW 05:34:54 48° WSW 05:39:55 10° S
STARLINK 1059 3.4 05:32:59 24° W 05:35:15 76° N 05:39:07 10° ENE
STARLINK 1029 2.9 05:34:23 28° W 05:35:51 68° N 05:38:59 10° ENE
STARLINK-80 3.6 05:36:34 23° W 05:38:45 58° SSW 05:42:29 10° SE
STARLINK 1057 3.4 05:36:41 22° W 05:39:06 75° N 05:42:59 10° ENE
STARLINK 1039 4.0 05:35:44 11° SW 05:39:40 63° SSE 05:43:46 10° ENE
Cosmos 2333 Rocket 3.1 05:34:11 10° S 05:39:47 55° ESE 05:45:24 10° NE
STARLINK-33 3.2 05:38:04 23° WNW 05:40:07 71° N 05:43:41 10° E
Cosmos 1812 Rocket 3.5 05:36:27 10° SSW 05:40:50 68° WNW 05:45:16 10° N
STARLINK-66 3.2 05:39:40 22° WNW 05:41:48 72° N 05:45:21 10° E
STARLINK 1052 3.4 05:40:24 20° W 05:42:59 73° N 05:46:52 10° ENE
STARLINK-61 3.5 05:40:37 21° WNW 05:43:13 80° NNE 05:47:11 10° E
STARLINK-55 3.2 05:41:16 22° WNW 05:43:27 73° N 05:47:01 10° E
CZ-2C R/B 4.4 05:39:09 10° ESE 05:43:49 31° ENE 05:48:34 10° N
Cosmos 304 Rocket 4.4 05:39:31 10° NNW 05:44:19 57° ENE 05:49:04 10° SE
STARLINK 1045 3.9 05:40:31 10° WSW 05:44:38 66° SSE 05:48:45 10° ENE
STARLINK-28 3.2 05:42:59 21° WNW 05:45:15 75° N 05:48:49 10° E
STARLINK-24 3.6 05:43:58 19° WNW 05:46:46 73° N 05:50:48 10° E
STARLINK 1068 3.4 05:44:06 18° W 05:46:51 72° N 05:50:43 10° ENE
SMAP 3.4 05:42:49 10° NNE 05:47:30 72° ESE 05:52:08 10° S
STARLINK-81 3.6 05:46:29 18° WNW 05:49:23 72° N 05:53:25 10° E
Cosmos 1340 Rocket 2.7 05:45:37 10° SSW 05:49:29 62° WNW 05:53:24 10° N
STARLINK 1050 3.8 05:45:33 10° WSW 05:49:40 71° SSE 05:53:49 10° ENE
Iridium 96 3.5 05:48:18 10° SSW 05:50:35 48° W 05:52:50 10° N
STARLINK-64 3.4 05:48:08 18° WNW 05:50:49 74° N 05:54:33 10° E
Lacrosse 5 rocket 1.7 05:47:30 17° WNW 05:50:55 57° SW 05:55:12 10° SE
STARLINK-54 3.6 05:48:11 17° WNW 05:51:10 74° N 05:55:12 10° E
H-2A R/B 4.4 05:50:32 10° NNW 05:51:27 12° NW 05:51:27 12° NW
STARLINK-77 3.6 05:49:39 17° WNW 05:52:41 73° N 05:56:44 10° E
STARLINK 1035 3.3 05:50:11 17° W 05:52:54 69° N 05:56:33 10° ENE
Cosmos 1300 3.3 05:49:29 10° SW 05:53:01 35° WNW 05:56:35 10° N
STARLINK-25 3.6 05:51:14 16° WNW 05:54:22 74° N 05:58:23 10° E
STARLINK 1060 3.5 05:51:32 16° W 05:54:36 71° N 05:58:28 10° ENE
STARLINK 1055 3.8 05:50:31 10° WSW 05:54:39 74° SSE 05:58:48 10° ENE
Cosmos 2360 Rocket 2.3 05:50:13 10° SW 05:55:46 53° NW 06:01:20 10° NNE
STARLINK-71 3.6 05:53:02 16° WNW 05:56:14 76° N 06:00:16 10° E
SL-16 R/B 3.0 05:52:22 10° WSW 05:57:21 30° NW 06:02:21 10° NNE
Cosmos 2219 Rocket 2.6 05:51:53 10° SSW 05:57:31 70° ESE 06:03:12 10° NNE
STARLINK-79 3.6 05:54:23 15° WNW 05:57:38 75° N 06:01:41 10° E
STARLINK 1027 3.3 05:54:58 15° W 05:57:52 67° N 06:01:32 10° E
STARLINK 1030 3.5 05:55:16 14° W 05:58:29 70° N 06:02:21 10° E
STARLINK 1028 2.9 05:56:40 17° W 05:58:47 60° N 06:01:41 10° E
STARLINK 1021 2.9 05:56:53 17° W 05:59:00 60° N 06:01:54 10° E
STARLINK 1019 2.8 05:57:07 17° W 05:59:13 60° N 06:02:07 10° E
STARLINK-78 3.6 05:56:01 15° WNW 05:59:21 75° N 06:03:23 10° E
STARLINK 1012 2.8 05:57:20 16° W 05:59:28 60° N 06:02:22 10° E
STARLINK 1022 3.7 05:55:27 10° WSW 05:59:35 78° SSE 06:03:45 10° ENE
H-2A R/B 2.7 05:55:44 10° N 05:59:38 69° WNW 06:03:28 10° SSW
STARLINK 1010 2.9 05:57:32 16° W 05:59:41 60° N 06:02:36 10° E
STARLINK 1026 2.8 05:57:45 16° W 05:59:54 60° N 06:02:49 10° E
STARLINK 1013 2.9 05:57:59 16° W 06:00:08 60° N 06:03:03 10° E
STARLINK 1009 2.9 05:58:11 16° W 06:00:22 60° N 06:03:17 10° E
STARLINK 1015 2.8 05:58:24 16° W 06:00:34 60° N 06:03:29 10° E
STARLINK 1016 2.8 05:58:38 16° W 06:00:49 60° N 06:03:43 10° E
STARLINK 1008 2.9 05:58:50 16° W 06:01:02 60° N 06:03:57 10° E
STARLINK-57 3.6 05:57:43 14° WNW 06:01:07 77° N 06:05:09 10° E
STARLINK 1025 2.9 05:59:16 16° W 06:01:29 60° N 06:04:23 10° E
STARLINK 1017 2.9 05:59:28 16° W 06:01:42 60° N 06:04:37 10° E
STARLINK 1023 2.9 05:59:42 15° W 06:01:56 60° N 06:04:51 10° E
STARLINK 1007 2.9 05:59:54 15° W 06:02:09 60° N 06:05:03 10° E
Cosmos 1076 Rocket 4.2 05:58:22 10° NNW 06:02:19 33° W 06:06:14 10° SSW
STARLINK 1048 2.9 06:00:09 15° W 06:02:24 60° N 06:05:19 10° E
STARLINK 1020 3.5 05:59:02 13° W 06:02:25 69° N 06:06:18 10° E
STARLINK 1049 2.9 06:00:20 15° W 06:02:36 60° N 06:05:31 10° E
STARLINK-49 3.6 05:59:11 14° WNW 06:02:38 76° N 06:06:41 10° E
STARLINK 1051 2.9 06:00:34 15° W 06:02:50 60° N 06:05:44 10° E
NOAA 6 4.3 05:57:56 10° N 06:02:53 46° WNW 06:07:49 10° SW
NOSS 3-1 (C) 4.5 05:56:10 10° NW 06:03:08 56° NE 06:11:14 10° ESE
Lacrosse 5 2.1 05:58:20 11° W 06:03:12 56° NNW 06:08:13 10° ENE
Cosmos 1461 4.4 06:00:03 10° SSW 06:03:44 39° ESE 06:07:33 10° NE
Cosmos 1980 Rocket 3.9 06:00:54 11° WNW 06:03:48 16° NNW 06:07:10 10° N
Cosmos 2333 4.2 05:58:22 10° SSW 06:04:10 81° WNW 06:09:59 10° NNE
STARLINK-27 3.6 06:00:46 13° WNW 06:04:17 77° N 06:08:19 10° E
Cosmos 1455 2.5 06:00:40 10° S 06:04:31 72° E 06:08:23 10° NNE
STARLINK 1042 3.7 06:00:23 10° WSW 06:04:31 81° SSE 06:08:41 10° ENE
GENESIS II 4.3 06:00:53 11° NW 06:04:52 65° SW 06:08:51 10° SSE
Cosmos 2322 3.7 05:59:34 10° SW 06:05:13 72° WNW 06:10:55 10° NNE
CORIOLIS 4.4 06:00:16 10° NNE 06:05:39 79° ESE 06:11:02 10° SSW
STARLINK-74 3.6 06:02:21 13° WNW 06:05:56 77° N 06:09:58 10° E
CZ-4B R/B 3.4 06:00:45 10° N 06:06:05 50° WNW 06:11:16 10° SW
STARLINK 1034 3.5 06:02:47 12° W 06:06:20 69° N 06:10:13 10° E
STARLINK-39 3.6 06:03:57 12° WNW 06:07:36 78° N 06:11:38 10° E
STARLINK 3.6 06:05:33 12° WNW 06:09:17 79° NNE 06:13:19 10° E
STARLINK 1056 3.7 06:05:27 10° WSW 06:09:36 84° SSE 06:13:46 10° ENE
STARLINK-69 3.6 06:07:20 12° WNW 06:11:08 81° NNE 06:15:10 10° E
ADEOS Rocket 3.3 06:06:23 10° SSW 06:11:35 39° W 06:17:10 10° NNW
STARLINK-21 3.6 06:08:46 11° WNW 06:12:38 80° NNE 06:16:40 10° E
Feng Yun 1-1 Rocket 4.5 06:06:47 10° NNE 06:12:45 87° ESE 06:18:33 10° SSW
Cosmos 2151 3.0 06:08:36 10° NNW 06:12:51 61° W 06:17:05 10° S
Cosmos 1331 Rocket 4.1 06:08:41 10° NNW 06:13:57 64° WSW 06:19:09 10° S
Okean O Rocket 2.3 06:10:03 10° N 06:14:01 32° WNW 06:17:57 10° SW
STARLINK 1033 3.5 06:10:23 10° W 06:14:15 68° N 06:18:08 10° E
STARLINK-45 3.6 06:10:32 11° WNW 06:14:28 83° NNE 06:18:31 10° ESE
STARLINK 1054 3.7 06:10:21 10° WSW 06:14:30 87° SSE 06:18:41 10° ENE
Okean 3 Rocket 3.7 06:11:18 10° NNW 06:15:47 57° W 06:20:13 10° S
STARLINK-70 3.6 06:12:03 10° WNW 06:16:02 83° NNE 06:20:05 10° ESE
STARLINK-76 3.6 06:13:32 10° WNW 06:17:35 83° NNE 06:21:38 10° ESE
STARLINK 3.6 06:15:11 10° WNW 06:19:14 83° NNE 06:23:16 10° ESE
STARLINK 1062 3.6 06:15:21 10° WSW 06:19:30 89° SSE 06:23:40 10° ENE
Cosmos 2369 Rocket 4.1 06:15:10 10° NNW 06:19:33 22° NE 06:23:57 10° E
Cosmos 2058 4.0 06:16:25 10° NNW 06:19:53 25° W 06:23:20 10° SW
STARLINK-32 3.6 06:16:50 10° WNW 06:20:53 84° NNE 06:24:56 10° ESE
CZ-2C R/B 3.7 06:16:27 10° S 06:20:55 61° WSW 06:25:22 10° NNW
STARLINK 1040 2.8 06:18:11 10° WNW 06:21:01 61° N 06:23:50 10° E
Cosmos 1302 Rocket 4.1 06:16:25 10° NNW 06:21:40 87° ENE 06:26:52 10° SSE
Lacrosse 4 Rocket 3.1 06:17:51 10° NNW 06:21:44 30° NE 06:25:39 10° ESE
STARLINK-40 3.6 06:18:31 10° WNW 06:22:34 85° NNE 06:26:37 10° ESE
STARLINK-48 4.1 06:18:58 10° WNW 06:22:42 45° SSW 06:26:25 10° SE
STARLINK-44 3.6 06:20:09 10° WNW 06:24:11 86° NNE 06:28:14 10° ESE
STARLINK 1053 3.6 06:20:23 10° WSW 06:24:32 88° NNW 06:28:42 10° ENE
Cosmos 1174 3.5 06:22:19 10° SW 06:25:50 50° NW 06:28:55 10° NNE
STARLINK-37 3.6 06:21:55 10° WNW 06:25:57 89° NNE 06:30:00 10° ESE
Cosmos 1892 3.7 06:23:21 10° NNW 06:26:36 27° W 06:29:50 10° SSW
Okean-O 2.8 06:22:52 10° NNE 06:27:20 83° ESE 06:31:47 10° SSW
STARLINK-36 3.6 06:23:28 10° WNW 06:27:31 88° NNE 06:31:34 10° ESE
EXPRESS MD2 3.8 06:25:28 10° W 06:27:34 21° SSW 06:29:19 10° SSE
STARLINK-26 3.6 06:24:47 10° WNW 06:28:11 51° SSW 06:31:34 10° SE
STARLINK-68 3.6 06:25:20 10° WNW 06:29:22 89° SSW 06:33:25 10° ESE
STARLINK 1061 3.6 06:25:19 10° WSW 06:29:29 86° NNW 06:33:39 10° ENE
Cosmos 2084 Rocket 3.5 06:25:07 10° SW 06:29:30 77° NW 06:33:58 10° NE
AQUARIUS 4.3 06:25:43 10° N 06:30:06 52° WNW 06:34:27 10° SW
ALOS 3.8 06:27:18 10° NNW 06:30:08 16° NW 06:32:59 10° W
STARLINK-63 3.6 06:26:51 10° WNW 06:30:54 89° SSW 06:34:57 10° ESE
USA 215 4.2 06:27:12 10° SSE 06:33:00 33° SW 06:38:50 10° WNW
